Time,TemperatureF,DewpointF,PressureIn,WindDirection,WindDirectionDegrees,WindSpeedMPH,WindSpeedGustMPH,Humidity,HourlyPrecipIn,Conditions,Clouds,dailyrainin,SoftwareType,DateUTC
2013-12-17 00:00:00,-9.4,-13.4,30.17,SSW,205,1.0,1.0,82,0.00,,,0.00,Wunderground v.1.15,2013-12-17 05:00:00,
2013-12-17 00:05:00,-9.7,-13.9,30.17,SSW,205,0.0,1.0,81,0.00,,,0.00,Wunderground v.1.15,2013-12-17 05:05:00,
2013-12-17 00:10:00,-10.0,-14.2,30.17,SSW,205,0.0,0.0,81,0.00,,,0.00,Wunderground v.1.15,2013-12-17 05:10:00,
2013-12-17 00:15:00,-9.9,-13.6,30.17,SSW,205,0.0,0.0,83,0.00,,,0.00,Wunderground v.1.15,2013-12-17 05:15:00,
2013-12-17 00:20:00,-9.8,-13.5,30.17,SSW,205,0.0,0.0,83,0.00,,,0.00,Wunderground v.1.15,2013-12-17 05:20:00,
2013-12-17 00:25:00,-9.6,-12.9,30.17,SSW,205,0.0,0.0,85,0.00,,,0.00,Wunderground v.1.15,2013-12-17 05:25:00,
2013-12-17 00:30:00,-9.4,-12.7,30.17,SSW,205,0.0,0.0,85,0.00,,,0.00,Wunderground v.1.15,2013-12-17 05:30:00,
2013-12-17 00:40:00,-10.2,-14.2,30.17,SSW,205,0.0,0.0,82,0.00,,,0.00,Wunderground v.1.15,2013-12-17 05:40:00,
2013-12-17 00:49:00,-10.4,-14.1,30.18,SSW,205,0.0,0.0,83,0.00,,,0.00,Wunderground v.1.15,2013-12-17 05:49:00,
2013-12-17 00:55:00,-10.6,-14.6,30.18,SSW,205,0.0,0.0,82,0.00,,,0.00,Wunderground v.1.15,2013-12-17 05:55:00,
2013-12-17 01:00:00,-10.9,-14.9,30.18,SSW,205,0.0,0.0,82,0.00,,,0.00,Wunderground v.1.15,2013-12-17 06:00:00,
2013-12-17 01:10:00,-10.7,-14.2,30.18,SSW,205,0.0,0.0,84,0.00,,,0.00,Wunderground v.1.15,2013-12-17 06:10:00,
2013-12-17 01:20:00,-10.7,-14.4,30.17,SSW,205,0.0,0.0,83,0.00,,,0.00,Wunderground v.1.15,2013-12-17 06:20:00,
2013-12-17 01:25:00,-11.0,-15.0,30.17,SSW,205,0.0,0.0,82,0.00,,,0.00,Wunderground v.1.15,2013-12-17 06:25:00,
2013-12-17 01:35:00,-11.3,-15.0,30.18,SSW,205,0.0,0.0,83,0.00,,,0.00,Wunderground v.1.15,2013-12-17 06:35:00,
2013-12-17 01:45:00,-11.6,-15.3,30.18,SSW,205,0.0,0.0,83,0.00,,,0.00,Wunderground v.1.15,2013-12-17 06:45:00,
2013-12-17 01:50:00,-11.7,-15.4,30.18,SSW,205,0.0,0.0,83,0.00,,,0.00,Wunderground v.1.15,2013-12-17 06:50:00,
2013-12-17 01:55:00,-11.8,-15.5,30.18,SSW,205,0.0,0.0,83,0.00,,,0.00,Wunderground v.1.15,2013-12-17 06:55:00,
2013-12-17 02:00:00,-12.0,-15.9,30.18,SSW,205,0.0,0.0,82,0.00,,,0.00,Wunderground v.1.15,2013-12-17 07:00:00,
2013-12-17 02:10:00,-12.6,-16.8,30.19,SSW,205,0.0,0.0,81,0.00,,,0.00,Wunderground v.1.15,2013-12-17 07:10:00,
2013-12-17 02:20:00,-12.9,-16.8,30.19,SSW,205,0.0,0.0,82,0.00,,,0.00,Wunderground v.1.15,2013-12-17 07:20:00,
2013-12-17 02:25:00,-12.9,-16.8,30.19,SSW,205,0.0,0.0,82,0.00,,,0.00,Wunderground v.1.15,2013-12-17 07:25:00,
2013-12-17 02:30:00,-12.8,-16.5,30.19,SSW,205,0.0,0.0,83,0.00,,,0.00,Wunderground v.1.15,2013-12-17 07:30:00,
2013-12-17 02:40:00,-13.0,-16.9,30.19,SSW,205,0.0,0.0,82,0.00,,,0.00,Wunderground v.1.15,2013-12-17 07:40:00,
2013-12-17 02:45:00,-13.1,-17.0,30.19,SSW,205,0.0,0.0,82,0.00,,,0.00,Wunderground v.1.15,2013-12-17 07:45:00,
2013-12-17 02:55:00,-13.4,-17.6,30.18,SSW,205,0.0,0.0,81,0.00,,,0.00,Wunderground v.1.15,2013-12-17 07:55:00,
2013-12-17 03:00:00,-13.6,-17.8,30.19,SSW,205,0.0,0.0,81,0.00,,,0.00,Wunderground v.1.15,2013-12-17 08:00:00,
2013-12-17 03:10:00,-13.8,-18.0,30.19,SSW,205,0.0,0.0,81,0.00,,,0.00,Wunderground v.1.15,2013-12-17 08:10:00,
2013-12-17 03:15:00,-13.9,-18.0,30.19,SSW,205,0.0,0.0,81,0.00,,,0.00,Wunderground v.1.15,2013-12-17 08:15:00,
2013-12-17 03:20:00,-13.9,-17.8,30.19,SSW,205,0.0,0.0,82,0.00,,,0.00,Wunderground v.1.15,2013-12-17 08:20:00,
2013-12-17 03:30:00,-14.0,-18.1,30.19,SSW,205,0.0,0.0,81,0.00,,,0.00,Wunderground v.1.15,2013-12-17 08:30:00,
2013-12-17 03:35:00,-14.2,-18.3,30.18,SSW,205,0.0,0.0,81,0.00,,,0.00,Wunderground v.1.15,2013-12-17 08:35:00,
2013-12-17 03:45:00,-14.4,-18.3,30.18,SSW,205,0.0,0.0,82,0.00,,,0.00,Wunderground v.1.15,2013-12-17 08:45:00,
2013-12-17 03:55:00,-14.7,-18.6,30.18,SSW,205,0.0,0.0,82,0.00,,,0.00,Wunderground v.1.15,2013-12-17 08:55:00,
2013-12-17 04:00:00,-14.9,-19.0,30.19,SSW,205,0.0,0.0,81,0.00,,,0.00,Wunderground v.1.15,2013-12-17 09:00:00,
2013-12-17 04:10:00,-15.1,-19.0,30.19,SSW,205,0.0,0.0,82,0.00,,,0.00,Wunderground v.1.15,2013-12-17 09:10:00,
2013-12-17 04:15:00,-15.3,-19.4,30.19,SSW,205,0.0,0.0,81,0.00,,,0.00,Wunderground v.1.15,2013-12-17 09:15:00,
2013-12-17 04:25:00,-15.3,-19.2,30.19,SSW,205,0.0,0.0,82,0.00,,,0.00,Wunderground v.1.15,2013-12-17 09:25:00,
2013-12-17 04:35:00,-15.7,-19.8,30.19,SSW,205,0.0,0.0,81,0.00,,,0.00,Wunderground v.1.15,2013-12-17 09:35:00,
2013-12-17 04:45:00,-16.0,-20.3,30.18,SSW,205,0.0,0.0,80,0.00,,,0.00,Wunderground v.1.15,2013-12-17 09:45:00,
2013-12-17 04:55:00,-16.2,-20.5,30.18,SSW,205,0.0,0.0,80,0.00,,,0.00,Wunderground v.1.15,2013-12-17 09:55:00,
2013-12-17 05:00:00,-16.2,-20.1,30.18,SSW,205,0.0,0.0,82,0.00,,,0.00,Wunderground v.1.15,2013-12-17 10:00:00,
2013-12-17 05:10:00,-16.1,-20.0,30.19,SSW,205,0.0,0.0,82,0.00,,,0.00,Wunderground v.1.15,2013-12-17 10:10:00,
2013-12-17 05:15:00,-16.2,-20.1,30.19,SSW,205,0.0,0.0,82,0.00,,,0.00,Wunderground v.1.15,2013-12-17 10:15:00,
2013-12-17 05:20:00,-16.3,-20.4,30.19,SSW,205,0.0,0.0,81,0.00,,,0.00,Wunderground v.1.15,2013-12-17 10:20:00,
2013-12-17 05:25:00,-16.6,-20.7,30.19,SSW,205,0.0,0.0,81,0.00,,,0.00,Wunderground v.1.15,2013-12-17 10:25:00,
2013-12-17 05:30:00,-16.9,-21.2,30.19,SSW,205,0.0,0.0,80,0.00,,,0.00,Wunderground v.1.15,2013-12-17 10:30:00,
2013-12-17 05:40:00,-17.0,-21.3,30.19,SSW,205,0.0,0.0,80,0.00,,,0.00,Wunderground v.1.15,2013-12-17 10:40:00,
2013-12-17 05:45:00,-17.3,-21.6,30.20,SSW,205,0.0,0.0,80,0.00,,,0.00,Wunderground v.1.15,2013-12-17 10:45:00,
2013-12-17 05:50:00,-17.4,-21.7,30.20,SSW,205,0.0,0.0,80,0.00,,,0.00,Wunderground v.1.15,2013-12-17 10:50:00,
2013-12-17 05:55:00,-17.2,-21.3,30.20,SSW,205,0.0,0.0,81,0.00,,,0.00,Wunderground v.1.15,2013-12-17 10:55:00,
2013-12-17 06:05:00,-17.3,-21.4,30.20,SSW,205,0.0,0.0,81,0.00,,,0.00,Wunderground v.1.15,2013-12-17 11:05:00,
2013-12-17 06:15:00,-17.2,-21.3,30.21,SSW,205,0.0,0.0,81,0.00,,,0.00,Wunderground v.1.15,2013-12-17 11:15:00,
2013-12-17 06:25:00,-16.9,-20.8,30.21,SSW,205,0.0,0.0,82,0.00,,,0.00,Wunderground v.1.15,2013-12-17 11:25:00,
2013-12-17 06:30:00,-16.9,-20.8,30.21,SSW,205,0.0,0.0,82,0.00,,,0.00,Wunderground v.1.15,2013-12-17 11:30:00,
2013-12-17 06:40:00,-17.4,-21.7,30.21,SSW,205,0.0,0.0,80,0.00,,,0.00,Wunderground v.1.15,2013-12-17 11:40:00,
2013-12-17 06:45:00,-17.5,-21.8,30.21,SSW,205,0.0,0.0,80,0.00,,,0.00,Wunderground v.1.15,2013-12-17 11:45:00,
2013-12-17 06:54:00,-17.7,-22.0,30.21,SSW,205,0.0,0.0,80,0.00,,,0.00,Wunderground v.1.15,2013-12-17 11:54:00,
2013-12-17 07:00:00,-17.7,-21.8,30.21,SSW,205,0.0,0.0,81,0.00,,,0.00,Wunderground v.1.15,2013-12-17 12:00:00,
2013-12-17 07:10:00,-18.0,-22.1,30.21,SSW,205,0.0,0.0,81,0.00,,,0.00,Wunderground v.1.15,2013-12-17 12:10:00,
2013-12-17 07:20:00,-18.1,-22.2,30.22,SSW,205,0.0,0.0,81,0.00,,,0.00,Wunderground v.1.15,2013-12-17 12:20:00,
2013-12-17 07:30:00,-18.2,-22.3,30.22,SSW,205,0.0,0.0,81,0.00,,,0.00,Wunderground v.1.15,2013-12-17 12:30:00,
2013-12-17 07:35:00,-18.4,-22.7,30.22,SSW,205,0.0,0.0,80,0.00,,,0.00,Wunderground v.1.15,2013-12-17 12:35:00,
2013-12-17 07:40:00,-18.5,-22.8,30.23,SSW,205,0.0,0.0,80,0.00,,,0.00,Wunderground v.1.15,2013-12-17 12:40:00,
2013-12-17 07:50:00,-18.5,-22.8,30.22,SSW,205,0.0,0.0,80,0.00,,,0.00,Wunderground v.1.15,2013-12-17 12:50:00,
2013-12-17 07:55:00,-18.5,-22.8,30.22,SSW,205,0.0,0.0,80,0.00,,,0.00,Wunderground v.1.15,2013-12-17 12:55:00,
2013-12-17 08:00:00,-18.3,-22.4,30.22,SSW,205,0.0,0.0,81,0.00,,,0.00,Wunderground v.1.15,2013-12-17 13:00:00,
2013-12-17 08:10:00,-17.4,-21.0,30.22,SSW,205,0.0,0.0,83,0.00,,,0.00,Wunderground v.1.15,2013-12-17 13:10:00,
2013-12-17 08:15:00,-16.7,-20.3,30.21,SSW,205,0.0,0.0,83,0.00,,,0.00,Wunderground v.1.15,2013-12-17 13:15:00,
2013-12-17 08:20:00,-15.8,-19.2,30.20,SSW,205,0.0,0.0,84,0.00,,,0.00,Wunderground v.1.15,2013-12-17 13:20:00,
2013-12-17 08:30:00,-14.8,-18.7,30.20,ESE,123,0.0,0.0,82,0.00,,,0.00,Wunderground v.1.15,2013-12-17 13:30:00,
2013-12-17 08:40:00,-14.4,-18.3,30.20,ESE,122,0.0,0.0,82,0.00,,,0.00,Wunderground v.1.15,2013-12-17 13:40:00,
2013-12-17 08:45:00,-14.1,-18.0,30.20,ESE,122,0.0,0.0,82,0.00,,,0.00,Wunderground v.1.15,2013-12-17 13:45:00,
2013-12-17 08:55:00,-12.9,-13.9,30.21,SSE,153,0.0,0.0,95,0.00,,,0.00,Wunderground v.1.15,2013-12-17 13:55:00,
2013-12-17 09:00:00,-12.2,-16.1,30.21,SSE,153,0.0,0.0,82,0.00,,,0.00,Wunderground v.1.15,2013-12-17 14:00:00,
2013-12-17 09:10:00,-10.6,-14.6,30.19,SSE,153,0.0,0.0,82,0.00,,,0.00,Wunderground v.1.15,2013-12-17 14:10:00,
2013-12-17 09:15:00,-9.8,-14.0,30.19,SSE,153,0.0,0.0,81,0.00,,,0.00,Wunderground v.1.15,2013-12-17 14:15:00,
2013-12-17 09:20:00,-9.7,-14.4,30.20,SSE,151,0.0,1.0,79,0.00,,,0.00,Wunderground v.1.15,2013-12-17 14:20:00,
2013-12-17 09:30:00,-9.6,-14.3,30.19,West,271,1.0,1.0,79,0.00,,,0.00,Wunderground v.1.15,2013-12-17 14:30:00,
2013-12-17 09:40:00,-9.0,-14.0,30.20,West,278,1.0,1.0,78,0.00,,,0.00,Wunderground v.1.15,2013-12-17 14:40:00,
2013-12-17 09:45:00,-8.7,-13.7,30.21,West,278,0.0,1.0,78,0.00,,,0.00,Wunderground v.1.15,2013-12-17 14:45:00,
2013-12-17 09:50:00,-8.1,-12.9,30.20,West,278,0.0,0.0,79,0.00,,,0.00,Wunderground v.1.15,2013-12-17 14:50:00,
2013-12-17 09:55:00,-7.6,-12.6,30.20,West,264,1.0,1.0,78,0.00,,,0.00,Wunderground v.1.15,2013-12-17 14:55:00,
2013-12-17 10:00:00,-7.3,-12.6,30.18,SSW,203,1.0,1.0,77,0.00,,,0.00,Wunderground v.1.15,2013-12-17 15:00:00,
2013-12-17 10:10:00,-5.5,-10.1,30.18,SSW,203,0.0,0.0,80,0.00,,,0.00,Wunderground v.1.15,2013-12-17 15:10:00,
2013-12-17 10:15:00,-4.0,-9.4,30.18,SSW,202,0.0,0.0,77,0.00,,,0.00,Wunderground v.1.15,2013-12-17 15:15:00,
2013-12-17 10:25:00,-3.2,-9.4,30.18,WSW,255,0.0,0.0,74,0.00,,,0.00,Wunderground v.1.15,2013-12-17 15:25:00,
2013-12-17 10:30:00,-2.9,-9.4,30.17,WSW,255,0.0,0.0,73,0.00,,,0.00,Wunderground v.1.15,2013-12-17 15:30:00,
2013-12-17 10:40:00,-3.1,-9.6,30.17,WSW,255,0.0,0.0,73,0.00,,,0.00,Wunderground v.1.15,2013-12-17 15:40:00,
2013-12-17 10:45:00,-3.1,-9.6,30.16,WSW,255,0.0,0.0,73,0.00,,,0.00,Wunderground v.1.15,2013-12-17 15:45:00,
2013-12-17 10:55:00,-2.2,-8.5,30.15,NNW,339,0.0,0.0,74,0.00,,,0.00,Wunderground v.1.15,2013-12-17 15:55:00,
2013-12-17 11:00:00,-1.8,-8.3,30.15,ENE,71,1.0,1.0,73,0.00,,,0.00,Wunderground v.1.15,2013-12-17 16:00:00,
2013-12-17 11:15:00,-0.6,-7.5,30.14,ENE,70,0.0,1.0,72,0.00,,,0.00,Wunderground v.1.15,2013-12-17 16:15:00,
2013-12-17 11:25:00,0.7,-6.8,30.11,North,2,0.0,0.0,70,0.00,,,0.00,Wunderground v.1.15,2013-12-17 16:25:00,
2013-12-17 11:30:00,0.8,-7.0,30.12,NE,49,0.0,2.0,69,0.00,,,0.00,Wunderground v.1.15,2013-12-17 16:30:00,
2013-12-17 11:40:00,0.0,-7.8,30.10,ENE,66,1.0,1.0,69,0.00,,,0.00,Wunderground v.1.15,2013-12-17 16:40:00,
2013-12-17 11:50:00,0.2,-7.3,30.12,ENE,73,1.0,1.0,70,0.00,,,0.00,Wunderground v.1.15,2013-12-17 16:50:00,
2013-12-17 11:55:00,0.4,-7.1,30.12,ENE,72,1.0,1.0,70,0.00,,,0.00,Wunderground v.1.15,2013-12-17 16:55:00,
2013-12-17 12:00:00,0.9,-6.6,30.12,ENE,72,0.0,0.0,70,0.00,,,0.00,Wunderground v.1.15,2013-12-17 17:00:00,
2013-12-17 12:10:00,1.9,-5.9,30.13,East,93,0.0,0.0,69,0.00,,,0.00,Wunderground v.1.15,2013-12-17 17:10:00,
2013-12-17 12:15:00,2.0,-5.8,30.13,East,93,0.0,0.0,69,0.00,,,0.00,Wunderground v.1.15,2013-12-17 17:15:00,
2013-12-17 12:25:00,2.3,-5.6,30.11,ESE,107,0.0,0.0,69,0.00,,,0.00,Wunderground v.1.15,2013-12-17 17:25:00,
2013-12-17 12:30:00,2.7,-5.5,30.11,ESE,111,0.0,0.0,68,0.00,,,0.00,Wunderground v.1.15,2013-12-17 17:30:00,
2013-12-17 12:40:00,3.0,-4.9,30.11,ESE,110,1.0,1.0,69,0.00,,,0.00,Wunderground v.1.15,2013-12-17 17:40:00,
2013-12-17 12:45:00,2.9,-5.0,30.11,ESE,110,1.0,1.0,69,0.00,,,0.00,Wunderground v.1.15,2013-12-17 17:45:00,
2013-12-17 12:55:00,2.9,-5.6,30.10,East,80,1.0,1.0,67,0.00,,,0.00,Wunderground v.1.15,2013-12-17 17:55:00,
2013-12-17 13:05:00,3.0,-5.5,30.10,East,80,1.0,2.0,67,0.00,,,0.00,Wunderground v.1.15,2013-12-17 18:05:00,
2013-12-17 13:15:00,3.3,-5.2,30.10,East,80,0.0,2.0,67,0.00,,,0.00,Wunderground v.1.15,2013-12-17 18:15:00,
2013-12-17 13:25:00,3.6,-4.9,30.09,East,80,0.0,1.0,67,0.00,,,0.00,Wunderground v.1.15,2013-12-17 18:25:00,
2013-12-17 13:35:00,4.2,-4.0,30.09,East,81,0.0,0.0,68,0.00,,,0.00,Wunderground v.1.15,2013-12-17 18:35:00,
2013-12-17 13:45:00,4.5,-3.1,30.09,East,81,0.0,0.0,70,0.00,,,0.00,Wunderground v.1.15,2013-12-17 18:45:00,
2013-12-17 13:50:00,4.6,-2.7,30.09,East,81,0.0,0.0,71,0.00,,,0.00,Wunderground v.1.15,2013-12-17 18:50:00,
2013-12-17 13:55:00,4.5,-2.5,30.09,East,81,0.0,0.0,72,0.00,,,0.00,Wunderground v.1.15,2013-12-17 18:55:00,
2013-12-17 14:05:00,4.4,-1.5,30.09,East,81,0.0,0.0,76,0.00,,,0.00,Wunderground v.1.15,2013-12-17 19:05:00,
2013-12-17 14:10:00,4.4,-1.2,30.08,East,81,0.0,0.0,77,0.00,,,0.00,Wunderground v.1.15,2013-12-17 19:10:00,
2013-12-17 14:20:00,4.7,-0.4,30.08,East,81,0.0,0.0,79,0.00,,,0.00,Wunderground v.1.15,2013-12-17 19:20:00,
2013-12-17 14:30:00,4.7,-0.1,30.08,East,81,0.0,0.0,80,0.00,,,0.00,Wunderground v.1.15,2013-12-17 19:30:00,
2013-12-17 14:40:00,4.8,0.2,30.07,East,81,0.0,0.0,81,0.00,,,0.00,Wunderground v.1.15,2013-12-17 19:40:00,
2013-12-17 14:50:00,5.0,0.4,30.07,East,81,0.0,0.0,81,0.00,,,0.00,Wunderground v.1.15,2013-12-17 19:50:00,
2013-12-17 15:00:00,5.1,0.8,30.06,East,81,0.0,0.0,82,0.00,,,0.00,Wunderground v.1.15,2013-12-17 20:00:00,
2013-12-17 15:20:00,5.6,1.8,30.05,East,81,0.0,0.0,84,0.00,,,0.00,Wunderground v.1.15,2013-12-17 20:20:00,
2013-12-17 15:30:00,5.8,1.8,30.05,East,81,0.0,0.0,83,0.00,,,0.00,Wunderground v.1.15,2013-12-17 20:30:00,
2013-12-17 15:40:00,5.9,2.1,30.05,East,81,0.0,1.0,84,0.00,,,0.00,Wunderground v.1.15,2013-12-17 20:40:00,
2013-12-17 15:50:00,6.0,2.2,30.05,East,81,0.0,0.0,84,0.00,,,0.00,Wunderground v.1.15,2013-12-17 20:50:00,
2013-12-17 15:55:00,6.0,2.2,30.05,East,81,0.0,0.0,84,0.00,,,0.00,Wunderground v.1.15,2013-12-17 20:55:00,
2013-12-17 16:00:00,6.0,2.2,30.05,East,81,0.0,0.0,84,0.00,,,0.00,Wunderground v.1.15,2013-12-17 21:00:00,
2013-12-17 16:10:00,6.0,2.2,30.04,East,81,0.0,0.0,84,0.00,,,0.00,Wunderground v.1.15,2013-12-17 21:10:00,
2013-12-17 16:20:00,6.0,2.2,30.05,East,81,0.0,0.0,84,0.00,,,0.00,Wunderground v.1.15,2013-12-17 21:20:00,
2013-12-17 16:25:00,6.0,2.2,30.04,East,81,0.0,0.0,84,0.00,,,0.00,Wunderground v.1.15,2013-12-17 21:25:00,
2013-12-17 16:35:00,6.1,2.6,30.04,East,81,0.0,0.0,85,0.00,,,0.00,Wunderground v.1.15,2013-12-17 21:35:00,
2013-12-17 16:44:00,6.2,2.7,30.04,East,81,0.0,0.0,85,0.00,,,0.00,Wunderground v.1.15,2013-12-17 21:44:00,
2013-12-17 16:50:00,6.1,2.8,30.04,East,81,0.0,0.0,86,0.00,,,0.00,Wunderground v.1.15,2013-12-17 21:50:00,
2013-12-17 16:55:00,6.1,2.8,30.04,East,81,0.0,0.0,86,0.00,,,0.00,Wunderground v.1.15,2013-12-17 21:55:00,
2013-12-17 17:00:00,6.0,2.7,30.04,East,81,0.0,0.0,86,0.00,,,0.00,Wunderground v.1.15,2013-12-17 22:00:00,
2013-12-17 17:10:00,5.9,2.6,30.04,East,81,0.0,0.0,86,0.00,,,0.00,Wunderground v.1.15,2013-12-17 22:10:00,
2013-12-17 17:15:00,5.8,2.5,30.04,East,81,0.0,0.0,86,0.00,,,0.00,Wunderground v.1.15,2013-12-17 22:15:00,
2013-12-17 17:25:00,5.7,2.4,30.05,East,81,0.0,0.0,86,0.00,,,0.00,Wunderground v.1.15,2013-12-17 22:25:00,
2013-12-17 17:35:00,5.7,2.7,30.04,East,81,0.0,0.0,87,0.00,,,0.00,Wunderground v.1.15,2013-12-17 22:35:00,
2013-12-17 17:45:00,5.6,2.6,30.05,East,81,0.0,0.0,87,0.00,,,0.00,Wunderground v.1.15,2013-12-17 22:45:00,
2013-12-17 17:50:00,5.5,2.5,30.05,East,81,0.0,0.0,87,0.00,,,0.00,Wunderground v.1.15,2013-12-17 22:50:00,
2013-12-17 18:00:00,5.5,2.5,30.05,East,81,0.0,0.0,87,0.00,,,0.00,Wunderground v.1.15,2013-12-17 23:00:00,
2013-12-17 18:09:00,5.5,2.5,30.05,East,81,0.0,0.0,87,0.00,,,0.00,Wunderground v.1.15,2013-12-17 23:09:00,
2013-12-17 18:15:00,5.5,2.5,30.05,East,81,0.0,0.0,87,0.00,,,0.00,Wunderground v.1.15,2013-12-17 23:15:00,
2013-12-17 18:20:00,5.5,2.5,30.05,East,81,0.0,0.0,87,0.00,,,0.00,Wunderground v.1.15,2013-12-17 23:20:00,
2013-12-17 18:30:00,5.5,2.5,30.05,East,81,0.0,0.0,87,0.00,,,0.00,Wunderground v.1.15,2013-12-17 23:30:00,
2013-12-17 18:40:00,5.6,2.6,30.05,East,81,0.0,0.0,87,0.00,,,0.00,Wunderground v.1.15,2013-12-17 23:40:00,
2013-12-17 18:45:00,5.7,2.9,30.05,East,81,0.0,0.0,88,0.00,,,0.00,Wunderground v.1.15,2013-12-17 23:45:00,
2013-12-17 18:50:00,5.7,2.9,30.06,East,81,0.0,0.0,88,0.00,,,0.00,Wunderground v.1.15,2013-12-17 23:50:00,
2013-12-17 18:55:00,5.8,3.0,30.06,East,81,0.0,0.0,88,0.00,,,0.00,Wunderground v.1.15,2013-12-17 23:55:00,
2013-12-17 19:00:00,5.9,3.1,30.06,East,81,0.0,0.0,88,0.00,,,0.00,Wunderground v.1.15,2013-12-18 00:00:00,
2013-12-17 19:05:00,6.0,3.2,30.05,East,81,0.0,0.0,88,0.00,,,0.00,Wunderground v.1.15,2013-12-18 00:05:00,
2013-12-17 19:10:00,6.0,3.2,30.05,East,81,0.0,0.0,88,0.00,,,0.00,Wunderground v.1.15,2013-12-18 00:10:00,
2013-12-17 19:20:00,6.3,3.5,30.05,East,81,0.0,0.0,88,0.00,,,0.00,Wunderground v.1.15,2013-12-18 00:20:00,
2013-12-17 19:30:00,6.7,3.9,30.05,East,81,0.0,0.0,88,0.00,,,0.00,Wunderground v.1.15,2013-12-18 00:30:00,
2013-12-17 19:40:00,6.9,4.1,30.05,East,81,0.0,0.0,88,0.00,,,0.00,Wunderground v.1.15,2013-12-18 00:40:00,
2013-12-17 19:45:00,7.1,4.3,30.05,East,81,0.0,0.0,88,0.00,,,0.00,Wunderground v.1.15,2013-12-18 00:45:00,
2013-12-17 19:50:00,7.2,4.4,30.05,East,81,0.0,0.0,88,0.00,,,0.00,Wunderground v.1.15,2013-12-18 00:50:00,
2013-12-17 20:00:00,7.4,4.6,30.04,East,81,0.0,0.0,88,0.00,,,0.00,Wunderground v.1.15,2013-12-18 01:00:00,
2013-12-17 20:05:00,7.5,4.7,30.04,East,81,0.0,0.0,88,0.00,,,0.00,Wunderground v.1.15,2013-12-18 01:05:00,
2013-12-17 20:15:00,7.6,4.8,30.04,East,81,0.0,0.0,88,0.00,,,0.00,Wunderground v.1.15,2013-12-18 01:15:00,
2013-12-17 20:20:00,7.7,4.9,30.04,East,81,0.0,0.0,88,0.00,,,0.00,Wunderground v.1.15,2013-12-18 01:20:00,
2013-12-17 20:30:00,7.9,5.1,30.04,East,81,0.0,0.0,88,0.00,,,0.00,Wunderground v.1.15,2013-12-18 01:30:00,
2013-12-17 20:40:00,8.0,5.2,30.04,East,81,0.0,0.0,88,0.00,,,0.00,Wunderground v.1.15,2013-12-18 01:40:00,
2013-12-17 20:45:00,8.1,5.3,30.04,East,81,0.0,0.0,88,0.00,,,0.00,Wunderground v.1.15,2013-12-18 01:45:00,
2013-12-17 20:54:00,8.2,5.4,30.04,East,81,0.0,0.0,88,0.00,,,0.00,Wunderground v.1.15,2013-12-18 01:54:00,
2013-12-17 21:00:00,8.3,5.5,30.04,East,81,0.0,0.0,88,0.00,,,0.00,Wunderground v.1.15,2013-12-18 02:00:00,
2013-12-17 21:10:00,8.4,5.6,30.04,East,81,0.0,0.0,88,0.00,,,0.00,Wunderground v.1.15,2013-12-18 02:10:00,
2013-12-17 21:20:00,8.6,5.8,30.04,East,81,0.0,0.0,88,0.00,,,0.00,Wunderground v.1.15,2013-12-18 02:20:00,
2013-12-17 21:25:00,8.6,5.5,30.04,East,81,0.0,0.0,87,0.00,,,0.00,Wunderground v.1.15,2013-12-18 02:25:00,
2013-12-17 21:35:00,8.8,5.7,30.04,East,81,0.0,0.0,87,0.00,,,0.00,Wunderground v.1.15,2013-12-18 02:35:00,
2013-12-17 21:40:00,8.8,5.7,30.04,East,81,0.0,0.0,87,0.00,,,0.00,Wunderground v.1.15,2013-12-18 02:40:00,
2013-12-17 21:50:00,8.9,6.1,30.04,East,81,0.0,0.0,88,0.00,,,0.00,Wunderground v.1.15,2013-12-18 02:50:00,
2013-12-17 22:00:00,9.0,5.9,30.03,East,81,0.0,0.0,87,0.00,,,0.00,Wunderground v.1.15,2013-12-18 03:00:00,
2013-12-17 22:05:00,9.1,6.0,30.03,East,81,0.0,0.0,87,0.00,,,0.00,Wunderground v.1.15,2013-12-18 03:05:00,
2013-12-17 22:15:00,9.2,6.4,30.03,East,81,0.0,0.0,88,0.00,,,0.00,Wunderground v.1.15,2013-12-18 03:15:00,
2013-12-17 22:20:00,9.3,6.2,30.03,East,81,0.0,0.0,87,0.00,,,0.00,Wunderground v.1.15,2013-12-18 03:20:00,
2013-12-17 22:30:00,9.4,6.3,30.03,East,81,0.0,0.0,87,0.00,,,0.00,Wunderground v.1.15,2013-12-18 03:30:00,
2013-12-17 22:40:00,9.5,6.7,30.03,East,81,0.0,0.0,88,0.00,,,0.00,Wunderground v.1.15,2013-12-18 03:40:00,
2013-12-17 22:50:00,9.6,6.8,30.02,East,81,0.0,0.0,88,0.00,,,0.00,Wunderground v.1.15,2013-12-18 03:50:00,
2013-12-17 22:55:00,9.6,6.8,30.02,East,81,0.0,0.0,88,0.00,,,0.00,Wunderground v.1.15,2013-12-18 03:55:00,
2013-12-17 23:05:00,9.6,6.8,30.01,East,81,0.0,0.0,88,0.00,,,0.00,Wunderground v.1.15,2013-12-18 04:05:00,
2013-12-17 23:15:00,9.5,6.7,30.02,East,81,0.0,0.0,88,0.00,,,0.00,Wunderground v.1.15,2013-12-18 04:15:00,
2013-12-17 23:20:00,9.5,6.7,30.01,East,81,0.0,0.0,88,0.00,,,0.00,Wunderground v.1.15,2013-12-18 04:20:00,
2013-12-17 23:25:00,9.6,6.8,30.01,East,81,0.0,0.0,88,0.00,,,0.00,Wunderground v.1.15,2013-12-18 04:25:00,
2013-12-17 23:35:00,9.6,6.8,30.01,East,81,0.0,0.0,88,0.00,,,0.00,Wunderground v.1.15,2013-12-18 04:35:00,
2013-12-17 23:45:00,9.6,6.8,30.00,East,81,0.0,0.0,88,0.00,,,0.00,Wunderground v.1.15,2013-12-18 04:45:00,
2013-12-17 23:50:00,9.6,6.8,30.00,East,81,0.0,0.0,88,0.00,,,0.00,Wunderground v.1.15,2013-12-18 04:50:00,
2013-12-17 23:55:00,9.6,6.8,30.00,East,81,0.0,0.0,88,0.00,,,0.00,Wunderground v.1.15,2013-12-18 04:55:00,